Regional Weather Roundup
Issued by NWS Northern Indiana

Home | Current Version | Previous Version | Graphics & Text | Print | Product List | Glossary On
Versions: 1 2 3 4 5 6 7 8 9 10 11 12 13 14 15 16 17 18 19 20 21 22 23 24 25 26 27 28 29 30 31 32 33 34 35 36 37 38 39 40 41 42 43 44 45 46 47 48 49 50
000
ASUS43 KIWX 052300
RWRIWX

KIWX WEATHER ROUNDUP
NATIONAL WEATHER SERVICE NORTHERN INDIANA
600 PM EST MON DEC 05 2016

NOTE: "FAIR" INDICATES FEW OR NO CLOUDS BELOW 12,000 FEET WITH NO
SIGNIFICANT WEATHER AND/OR OBSTRUCTIONS TO VISIBILITY.

* THESE STATIONS ARE NOT UNDER NWS QUALITY CONTROL. THEY ALSO MAY NOT
  REPORT WEATHER SUCH AS PRECIPITATION OR FOG.

INZ001>027-060000-
NORTHERN INDIANA

CITY           SKY/WX    TMP DP  RH WIND       PRES   REMARKS
GARY*          CLOUDY    34  32  93 SE5       30.01F WCI  30
SOUTH BEND     CLOUDY    31  29  92 SE9       30.03F WCI  23
ELKHART*       CLOUDY    32  30  93 SE5       30.03F WCI  27
GOSHEN         CLOUDY    33  28  81 SE9       30.03S WCI  25
ANGOLA*        CLOUDY    30  28  93 SE3       30.03S
FORT WAYNE     MOCLDY    32  29  88 E5        30.04F WCI  27
PERU/GRISSOM   PTCLDY    34  33  97 E6        29.99F WCI  28

$$
INZ028>050-060000-
CENTRAL INDIANA

CITY           SKY/WX    TMP DP  RH WIND       PRES   REMARKS
LAFAYETTE      CLOUDY    34  31  88 E8        29.99S WCI  27
KOKOMO*        PTCLDY    35  33  92 E7        30.01F WCI  29
MUNCIE*        PTCLDY    36  32  85 E7        30.02R
INDIANAPOLIS   CLOUDY    37  32  82 SE8       30.01R

$$
MIZ043>046-050>051-056>058-064>065-071>073-077>080-060000-
SOUTHWEST LOWER MICHIGAN

CITY           SKY/WX    TMP DP  RH WIND       PRES   REMARKS
BATTLE CREEK   CLOUDY    33  29  85 S8        30.04F WCI  26
BENTON HARBOR  CLOUDY    34  30  85 SE8       30.02F WCI  27
COLDWATER*     CLOUDY    32  28  86 CALM      30.03F
HILLSDALE*     CLOUDY    32  28  86 CALM      30.03S
HOLLAND        CLOUDY    34  29  82 S8        30.04S WCI  27
GRAND RAPIDS   CLOUDY    35  29  78 S8        30.04S WCI  29
KALAMAZOO      CLOUDY    34  28  79 S8        30.04F WCI  27
STURGIS*       CLOUDY    32  29  88 SE5       30.02F WCI  28
THREE RIVERS*  CLOUDY    34  31  89 SE5       30.04F WCI  30

$$
OHZ001>008-015>018-024>025-060000-
NORTHWEST OHIO

CITY           SKY/WX    TMP DP  RH WIND       PRES   REMARKS
DEFIANCE       PTCLDY    32  27  81 CALM      30.06F
FINDLAY        CLEAR     34  27  75 E5        30.05F WCI  30
TOLEDO EXPRESS CLOUDY    34  29  82 CALM      30.07F
TOLEDO METCALF CLOUDY    35  30  82 CALM      30.09S
LIMA           CLEAR     31  29  92 E5        30.04F WCI  26

$$
AND FOR LAKE MICHIGAN COASTAL AND OPEN LAKE BUOY OBSERVATIONS

STATION/POSITION TEMP    WIND        PRES    VSBY  WAVE
                 AIR SEA DIR/SP/G                  HT/PER
                 (F)     (DEG/KT/KT) (MB)    (MI)  (FT/S)
CALUMET HARBOR    32     140/  4/  6 1015.5F
BURNS HARBOR      33     160/  6/ 10 1016.9S
SAINT JOSEPH      34     170/  3/  6 1017.3

$$
&&




USA.gov is the U.S. government's official web portal to all federal, state and local government web resources and services.